Location: Appleton
(44.2618°N, 88.4157°W)
Time: 04:30:24
(UTC+00:00)

S-56A Canister/Altair - Pass Details

Date: 08 March 2021
Orbit: 632 x 2500 km, 38.9° (Epoch: 14 April)

Event Time Altitude Azimuth Distance (km) Brightness Sun altitude
Rises 20:59:37 0° 267° (W) 5,629 12.7 27.4°
Reaches altitude 10° 21:03:02 10° 265° (W) 4,798 12.6 26.9°
Maximum altitude 21:17:13 71° 186° (S) 2,604 10.8 24.9°
Drops below altitude 10° 21:31:47 10° 106° (ESE) 4,908 11.3 22.7°
Sets 21:35:19 0° 105° (ESE) 5,759 11.6 22.1°
